Time,TemperatureF,DewpointF,PressureIn,WindDirection,WindDirectionDegrees,WindSpeedMPH,WindSpeedGustMPH,Humidity,HourlyPrecipIn,Conditions,Clouds,dailyrainin,SoftwareType,DateUTC
2013-05-28 00:02:00,45.3,39.0,30.19,NNE,14,0.0,1.0,78,0.00,,,0.00,weatherlink.com 1.10,2013-05-28 04:02:00,
2013-05-28 00:18:00,46.2,39.0,30.20,North,5,0.0,1.0,75,0.00,,,0.00,weatherlink.com 1.10,2013-05-28 04:18:00,
2013-05-28 00:34:00,46.4,38.0,30.20,North,9,0.0,1.0,73,0.00,,,0.00,weatherlink.com 1.10,2013-05-28 04:34:00,
2013-05-28 00:50:00,46.1,39.0,30.20,NNE,14,0.0,1.0,75,0.00,,,0.00,weatherlink.com 1.10,2013-05-28 04:50:00,
2013-05-28 01:07:00,45.6,38.0,30.20,NNE,15,0.0,1.0,76,0.00,,,0.00,weatherlink.com 1.10,2013-05-28 05:07:00,
2013-05-28 01:23:00,45.5,39.0,30.21,NNE,19,0.0,1.0,77,0.00,,,0.00,weatherlink.com 1.10,2013-05-28 05:23:00,
2013-05-28 01:39:00,45.1,38.0,30.21,NNE,15,0.0,1.0,76,0.00,,,0.00,weatherlink.com 1.10,2013-05-28 05:39:00,
2013-05-28 01:55:00,45.1,38.0,30.21,North,5,0.0,1.0,77,0.00,,,0.00,weatherlink.com 1.10,2013-05-28 05:55:00,
2013-05-28 02:11:00,45.1,38.0,30.21,North,7,0.0,1.0,76,0.00,,,0.00,weatherlink.com 1.10,2013-05-28 06:11:00,
2013-05-28 02:28:00,44.4,39.0,30.21,North,8,0.0,1.0,80,0.00,,,0.00,weatherlink.com 1.10,2013-05-28 06:28:00,
2013-05-28 02:44:00,43.3,38.0,30.21,North,9,0.0,1.0,81,0.00,,,0.00,weatherlink.com 1.10,2013-05-28 06:44:00,
2013-05-28 03:00:00,43.7,37.0,30.21,North,8,0.0,1.0,78,0.00,,,0.00,weatherlink.com 1.10,2013-05-28 07:00:00,
2013-05-28 03:16:00,43.3,38.0,30.20,NNE,14,0.0,1.0,81,0.00,,,0.00,weatherlink.com 1.10,2013-05-28 07:16:00,
2013-05-28 03:32:00,43.6,38.0,30.20,NNE,14,0.0,1.0,80,0.00,,,0.00,weatherlink.com 1.10,2013-05-28 07:32:00,
2013-05-28 03:49:00,42.5,38.0,30.20,ENE,63,0.0,1.0,83,0.00,,,0.00,weatherlink.com 1.10,2013-05-28 07:49:00,
2013-05-28 04:05:00,41.9,37.0,30.20,ENE,63,0.0,1.0,84,0.00,,,0.00,weatherlink.com 1.10,2013-05-28 08:05:00,
2013-05-28 04:21:00,41.3,37.0,30.21,ENE,64,0.0,1.0,83,0.00,,,0.00,weatherlink.com 1.10,2013-05-28 08:21:00,
2013-05-28 04:37:00,41.7,37.0,30.21,ENE,64,0.0,1.0,82,0.00,,,0.00,weatherlink.com 1.10,2013-05-28 08:37:00,
2013-05-28 04:54:00,41.4,36.0,30.22,ENE,64,0.0,1.0,80,0.00,,,0.00,weatherlink.com 1.10,2013-05-28 08:54:00,
2013-05-28 05:11:00,40.7,36.0,30.22,ENE,64,0.0,1.0,83,0.00,,,0.00,weatherlink.com 1.10,2013-05-28 09:11:00,
2013-05-28 05:27:00,40.4,36.0,30.22,ENE,64,0.0,1.0,85,0.00,,,0.00,weatherlink.com 1.10,2013-05-28 09:27:00,
2013-05-28 05:43:00,41.0,36.0,30.23,ENE,67,0.0,1.0,83,0.00,,,0.00,weatherlink.com 1.10,2013-05-28 09:43:00,
2013-05-28 06:00:00,41.8,36.0,30.23,East,85,1.0,2.0,80,0.00,,,0.00,weatherlink.com 1.10,2013-05-28 10:00:00,
2013-05-28 06:16:00,42.6,37.0,30.23,East,85,1.0,1.0,80,0.00,,,0.00,weatherlink.com 1.10,2013-05-28 10:16:00,
2013-05-28 06:32:00,43.3,37.0,30.24,East,85,0.0,1.0,77,0.00,,,0.00,weatherlink.com 1.10,2013-05-28 10:32:00,
2013-05-28 06:48:00,44.7,38.0,30.24,East,85,0.0,1.0,76,0.00,,,0.00,weatherlink.com 1.10,2013-05-28 10:48:00,
2013-05-28 07:05:00,45.2,38.0,30.25,East,85,0.0,0.0,77,0.00,,,0.00,weatherlink.com 1.10,2013-05-28 11:05:00,
2013-05-28 07:21:00,46.1,40.0,30.25,East,85,0.0,1.0,78,0.00,,,0.00,weatherlink.com 1.10,2013-05-28 11:21:00,
2013-05-28 07:37:00,47.5,39.0,30.25,East,85,0.0,1.0,73,0.00,,,0.00,weatherlink.com 1.10,2013-05-28 11:37:00,
2013-05-28 07:53:00,50.8,42.0,30.25,East,85,0.0,1.0,72,0.00,,,0.00,weatherlink.com 1.10,2013-05-28 11:53:00,
2013-05-28 08:09:00,53.9,41.0,30.25,East,83,0.0,1.0,62,0.00,,,0.00,weatherlink.com 1.10,2013-05-28 12:09:00,
2013-05-28 08:26:00,54.7,40.0,30.24,ENE,73,0.0,1.0,57,0.00,,,0.00,weatherlink.com 1.10,2013-05-28 12:26:00,
2013-05-28 08:42:00,56.1,42.0,30.24,NNE,18,1.0,2.0,59,0.00,,,0.00,weatherlink.com 1.10,2013-05-28 12:42:00,
2013-05-28 08:58:00,57.0,43.0,30.23,NE,38,1.0,4.0,60,0.00,,,0.00,weatherlink.com 1.10,2013-05-28 12:58:00,
2013-05-28 09:14:00,59.3,43.0,30.23,West,272,1.0,4.0,55,0.00,,,0.00,weatherlink.com 1.10,2013-05-28 13:14:00,
2013-05-28 09:31:00,60.9,41.0,30.23,WSW,244,3.0,4.0,48,0.00,,,0.00,weatherlink.com 1.10,2013-05-28 13:31:00,
2013-05-28 09:47:00,62.0,40.0,30.23,WSW,256,1.0,4.0,44,0.00,,,0.00,weatherlink.com 1.10,2013-05-28 13:47:00,
2013-05-28 10:03:00,62.7,43.0,30.23,WNW,294,2.0,5.0,48,0.00,,,0.00,weatherlink.com 1.10,2013-05-28 14:03:00,
2013-05-28 10:19:00,63.2,42.0,30.23,NW,310,3.0,6.0,46,0.00,,,0.00,weatherlink.com 1.10,2013-05-28 14:19:00,
2013-05-28 10:36:00,63.8,43.0,30.23,NNE,18,0.0,4.0,46,0.00,,,0.00,weatherlink.com 1.10,2013-05-28 14:36:00,
2013-05-28 10:52:00,64.7,42.0,30.23,ESE,111,1.0,6.0,44,0.00,,,0.00,weatherlink.com 1.10,2013-05-28 14:52:00,
2013-05-28 11:08:00,65.1,44.0,30.23,WSW,243,3.0,6.0,47,0.00,,,0.00,weatherlink.com 1.10,2013-05-28 15:08:00,
2013-05-28 11:24:00,65.7,41.0,30.23,West,259,1.0,4.0,40,0.00,,,0.00,weatherlink.com 1.10,2013-05-28 15:24:00,
2013-05-28 11:40:00,66.4,42.0,30.23,NNE,19,1.0,6.0,41,0.00,,,0.00,weatherlink.com 1.10,2013-05-28 15:40:00,
2013-05-28 11:57:00,67.1,44.0,30.23,West,275,2.0,5.0,43,0.00,,,0.00,weatherlink.com 1.10,2013-05-28 15:57:00,
2013-05-28 12:13:00,67.5,43.0,30.22,NE,35,1.0,3.0,41,0.00,,,0.00,weatherlink.com 1.10,2013-05-28 16:13:00,
2013-05-28 12:29:00,68.8,41.0,30.22,WSW,251,2.0,5.0,37,0.00,,,0.00,weatherlink.com 1.10,2013-05-28 16:29:00,
2013-05-28 12:45:00,68.5,45.0,30.21,WSW,258,3.0,5.0,43,0.00,,,0.00,weatherlink.com 1.10,2013-05-28 16:45:00,
2013-05-28 13:02:00,69.7,43.0,30.20,WSW,249,3.0,5.0,38,0.00,,,0.00,weatherlink.com 1.10,2013-05-28 17:02:00,
2013-05-28 13:18:00,69.9,45.0,30.20,WNW,287,2.0,4.0,41,0.00,,,0.00,weatherlink.com 1.10,2013-05-28 17:18:00,
2013-05-28 13:34:00,70.0,46.0,30.20,ESE,102,2.0,6.0,43,0.00,,,0.00,weatherlink.com 1.10,2013-05-28 17:34:00,
2013-05-28 13:50:00,71.3,45.0,30.19,WSW,252,2.0,8.0,39,0.00,,,0.00,weatherlink.com 1.10,2013-05-28 17:50:00,
2013-05-28 14:07:00,71.4,44.0,30.19,SW,221,4.0,6.0,38,0.00,,,0.00,weatherlink.com 1.10,2013-05-28 18:07:00,
2013-05-28 14:23:00,71.1,46.0,30.19,ENE,64,6.0,6.0,40,0.00,,,0.00,weatherlink.com 1.10,2013-05-28 18:23:00,
2013-05-28 14:39:00,71.1,47.0,30.18,NNE,33,1.0,4.0,42,0.00,,,0.00,weatherlink.com 1.10,2013-05-28 18:39:00,
2013-05-28 14:55:00,71.7,48.0,30.18,East,80,2.0,5.0,43,0.00,,,0.00,weatherlink.com 1.10,2013-05-28 18:55:00,
2013-05-28 15:11:00,71.1,46.0,30.17,West,267,1.0,4.0,40,0.00,,,0.00,weatherlink.com 1.10,2013-05-28 19:11:00,
2013-05-28 15:28:00,71.8,45.0,30.17,NE,39,1.0,3.0,38,0.00,,,0.00,weatherlink.com 1.10,2013-05-28 19:28:00,
2013-05-28 15:44:00,71.9,44.0,30.17,WSW,249,1.0,4.0,37,0.00,,,0.00,weatherlink.com 1.10,2013-05-28 19:44:00,
2013-05-28 16:00:00,73.0,44.0,30.16,West,270,2.0,4.0,36,0.00,,,0.00,weatherlink.com 1.10,2013-05-28 20:00:00,
2013-05-28 16:16:00,72.0,46.0,30.16,ENE,71,2.0,3.0,39,0.00,,,0.00,weatherlink.com 1.10,2013-05-28 20:16:00,
2013-05-28 16:33:00,71.0,43.0,30.16,WSW,255,0.0,3.0,37,0.00,,,0.00,weatherlink.com 1.10,2013-05-28 20:33:00,
2013-05-28 16:49:00,70.9,45.0,30.16,West,263,0.0,3.0,39,0.00,,,0.00,weatherlink.com 1.10,2013-05-28 20:49:00,
2013-05-28 17:05:00,71.5,44.0,30.15,West,265,1.0,4.0,37,0.00,,,0.00,weatherlink.com 1.10,2013-05-28 21:05:00,
2013-05-28 17:21:00,70.5,44.0,30.15,West,265,0.0,5.0,39,0.00,,,0.00,weatherlink.com 1.10,2013-05-28 21:21:00,
2013-05-28 17:38:00,68.9,45.0,30.15,WSW,257,0.0,3.0,42,0.00,,,0.00,weatherlink.com 1.10,2013-05-28 21:38:00,
2013-05-28 17:54:00,68.3,45.0,30.14,West,265,1.0,4.0,43,0.00,,,0.00,weatherlink.com 1.10,2013-05-28 21:54:00,
2013-05-28 18:10:00,68.2,45.0,30.14,West,275,1.0,3.0,44,0.00,,,0.00,weatherlink.com 1.10,2013-05-28 22:10:00,
2013-05-28 18:26:00,67.1,46.0,30.14,West,264,0.0,2.0,46,0.00,,,0.00,weatherlink.com 1.10,2013-05-28 22:26:00,
2013-05-28 18:43:00,65.8,47.0,30.14,West,264,0.0,1.0,50,0.00,,,0.00,weatherlink.com 1.10,2013-05-28 22:43:00,
2013-05-28 18:59:00,64.3,47.0,30.14,West,264,0.0,1.0,54,0.00,,,0.00,weatherlink.com 1.10,2013-05-28 22:59:00,
2013-05-28 19:15:00,63.3,47.0,30.14,West,266,0.0,1.0,55,0.00,,,0.00,weatherlink.com 1.10,2013-05-28 23:15:00,
2013-05-28 19:31:00,63.0,48.0,30.14,West,266,0.0,0.0,57,0.00,,,0.00,weatherlink.com 1.10,2013-05-28 23:31:00,
2013-05-28 19:47:00,61.5,47.0,30.15,NW,315,1.0,3.0,58,0.00,,,0.00,weatherlink.com 1.10,2013-05-28 23:47:00,
2013-05-28 20:04:00,60.1,47.0,30.15,West,265,0.0,2.0,62,0.00,,,0.00,weatherlink.com 1.10,2013-05-29 00:04:00,
2013-05-28 20:20:00,59.0,47.0,30.16,WNW,303,0.0,2.0,64,0.00,,,0.00,weatherlink.com 1.10,2013-05-29 00:20:00,
2013-05-28 20:36:00,58.1,46.0,30.15,WSW,251,0.0,3.0,65,0.00,,,0.00,weatherlink.com 1.10,2013-05-29 00:36:00,
2013-05-28 20:52:00,57.4,46.0,30.15,West,264,1.0,3.0,66,0.00,,,0.00,weatherlink.com 1.10,2013-05-29 00:52:00,
2013-05-28 21:09:00,57.0,46.0,30.16,WNW,289,0.0,4.0,66,0.00,,,0.00,weatherlink.com 1.10,2013-05-29 01:09:00,
2013-05-28 21:25:00,56.6,45.0,30.16,WSW,242,4.0,4.0,66,0.00,,,0.00,weatherlink.com 1.10,2013-05-29 01:25:00,
2013-05-28 21:41:00,56.3,45.0,30.16,West,270,1.0,4.0,65,0.00,,,0.00,weatherlink.com 1.10,2013-05-29 01:41:00,
2013-05-28 21:57:00,56.0,44.0,30.17,West,263,1.0,4.0,64,0.00,,,0.00,weatherlink.com 1.10,2013-05-29 01:57:00,
2013-05-28 22:14:00,55.5,44.0,30.17,WNW,282,0.0,3.0,65,0.00,,,0.00,weatherlink.com 1.10,2013-05-29 02:14:00,
2013-05-28 22:30:00,55.0,44.0,30.17,NNW,343,0.0,2.0,66,0.00,,,0.00,weatherlink.com 1.10,2013-05-29 02:30:00,
2013-05-28 22:46:00,54.4,44.0,30.17,WNW,289,0.0,2.0,67,0.00,,,0.00,weatherlink.com 1.10,2013-05-29 02:46:00,
2013-05-28 23:02:00,54.2,43.0,30.16,West,265,1.0,3.0,67,0.00,,,0.00,weatherlink.com 1.10,2013-05-29 03:02:00,
2013-05-28 23:19:00,54.7,44.0,30.16,WNW,284,0.0,2.0,68,0.00,,,0.00,weatherlink.com 1.10,2013-05-29 03:19:00,
2013-05-28 23:35:00,54.8,44.0,30.16,WNW,296,0.0,1.0,68,0.00,,,0.00,weatherlink.com 1.10,2013-05-29 03:35:00,
2013-05-28 23:51:00,54.7,45.0,30.16,North,350,0.0,1.0,69,0.00,,,0.00,weatherlink.com 1.10,2013-05-29 03:51:00,